DAL2972 KCHS-KRSW

Flight info

Callsign DAL2972
Flight time 1h 0m
Altitude 36000
Route LGRHD3 GIPPL CYNTA SHFTY6
Aircraft A321/M-SDE3FGHIRWY/LB1

Departure

Time 2026-04-26 14:46
Airport Charleston International Airport (KCHS)

Arrival

Time 2026-04-26 15:46
Airport Southwest Florida International Airport (KRSW)
Time Latitude Longitude Altitude Speed Heading
2026-04-26 14:24 32.88493 -80.03536 35 ft 0 kts 308°
2026-04-26 14:34 32.88483 -80.03521 34 ft 3 kts 336°
2026-04-26 14:34 32.88469 -80.03517 34 ft 0 kts
2026-04-26 14:37 32.88472 -80.03515 34 ft 1 kts 20°
2026-04-26 14:37 32.88490 -80.03490 35 ft 8 kts 47°
2026-04-26 14:37 32.88517 -80.03457 34 ft 0 kts 38°
2026-04-26 14:37 32.88523 -80.03455 36 ft 3 kts 15°
2026-04-26 14:38 32.88547 -80.03455 36 ft 2 kts 357°
2026-04-26 14:38 32.88556 -80.03455 36 ft 2 kts 357°
2026-04-26 14:38 32.88578 -80.03455 37 ft 3 kts
2026-04-26 14:38 32.88595 -80.03449 37 ft 4 kts 18°
2026-04-26 14:39 32.88638 -80.03429 36 ft 5 kts
2026-04-26 14:39 32.88666 -80.03436 35 ft 3 kts 338°
2026-04-26 14:39 32.88679 -80.03447 36 ft 3 kts 324°
2026-04-26 14:39 32.88703 -80.03477 36 ft 6 kts 307°
2026-04-26 14:40 32.88718 -80.03519 38 ft 6 kts 291°
2026-04-26 14:40 32.88731 -80.03559 37 ft 5 kts 290°
2026-04-26 14:40 32.88751 -80.03613 38 ft 11 kts 306°
2026-04-26 14:40 32.88814 -80.03633 39 ft 8 kts
2026-04-26 14:41 32.88859 -80.03626 40 ft 5 kts
2026-04-26 14:41 32.88887 -80.03621 41 ft 5 kts
2026-04-26 14:41 32.88934 -80.03613 43 ft 7 kts
2026-04-26 14:41 32.88972 -80.03608 44 ft 6 kts
2026-04-26 14:42 32.89024 -80.03578 46 ft 10 kts 45°
2026-04-26 14:42 32.89064 -80.03521 46 ft 8 kts 51°
2026-04-26 14:42 32.89097 -80.03472 46 ft 7 kts 51°
2026-04-26 14:42 32.89122 -80.03433 45 ft 5 kts 52°
2026-04-26 14:43 32.89143 -80.03396 46 ft 7 kts 56°
2026-04-26 14:43 32.89168 -80.03350 45 ft 4 kts 57°
2026-04-26 14:44 32.89169 -80.03348 45 ft 2 kts 57°
2026-04-26 14:44 32.89196 -80.03299 44 ft 11 kts 57°
2026-04-26 14:44 32.89245 -80.03258 43 ft 8 kts 349°
2026-04-26 14:44 32.89273 -80.03275 43 ft 0 kts 327°
2026-04-26 14:45 32.89275 -80.03276 43 ft 3 kts 327°
2026-04-26 14:45 32.89613 -80.03533 48 ft 89 kts 328°
2026-04-26 14:45 32.90315 -80.04065 53 ft 148 kts 328°
2026-04-26 14:46 32.91306 -80.04801 236 ft 178 kts 329°
2026-04-26 14:46 32.92382 -80.05554 860 ft 182 kts 329°
2026-04-26 14:46 32.93484 -80.06332 1589 ft 185 kts 329°
2026-04-26 14:46 32.94575 -80.07113 2271 ft 180 kts 328°
2026-04-26 14:47 32.95681 -80.07908 2495 ft 194 kts 328°
2026-04-26 14:47 32.96892 -80.08789 2602 ft 214 kts 324°
2026-04-26 14:47 32.97865 -80.10206 2732 ft 236 kts 292°
2026-04-26 14:47 32.98115 -80.12208 3115 ft 254 kts 264°
2026-04-26 14:48 32.97514 -80.14208 3778 ft 263 kts 236°
2026-04-26 14:48 32.96139 -80.15602 4507 ft 270 kts 205°
2026-04-26 14:48 32.94346 -80.16301 5244 ft 272 kts 198°
2026-04-26 14:48 32.92516 -80.16914 5999 ft 275 kts 197°
2026-04-26 14:49 32.90663 -80.17525 6709 ft 278 kts 198°
2026-04-26 14:49 32.88794 -80.18147 7428 ft 280 kts 198°
2026-04-26 14:49 32.86910 -80.18778 8135 ft 283 kts 198°
2026-04-26 14:49 32.85006 -80.19420 8841 ft 285 kts 199°
2026-04-26 14:50 32.83084 -80.20069 9566 ft 288 kts 199°
2026-04-26 14:50 32.81145 -80.20725 10236 ft 292 kts 199°
2026-04-26 14:50 32.79126 -80.21414 10467 ft 313 kts 199°
2026-04-26 14:50 32.76952 -80.22160 10589 ft 335 kts 199°
2026-04-26 14:51 32.74642 -80.22947 10716 ft 355 kts 198°
2026-04-26 14:51 32.72209 -80.23767 10906 ft 371 kts 198°
2026-04-26 14:51 32.69698 -80.24608 11414 ft 377 kts 198°
2026-04-26 14:51 32.67162 -80.25456 12002 ft 381 kts 198°
2026-04-26 14:52 32.64601 -80.26313 12572 ft 384 kts 198°
2026-04-26 14:52 32.62019 -80.27183 13147 ft 387 kts 198°
2026-04-26 14:52 32.59432 -80.28121 13698 ft 390 kts 203°
2026-04-26 14:52 32.57046 -80.29470 14182 ft 390 kts 213°
2026-04-26 14:53 32.54741 -80.31186 14672 ft 392 kts 215°
2026-04-26 14:53 32.52424 -80.32916 15161 ft 395 kts 215°
2026-04-26 14:53 32.50091 -80.34653 15629 ft 398 kts 215°
2026-04-26 14:53 32.47736 -80.36401 16112 ft 401 kts 215°
2026-04-26 14:54 32.45364 -80.38158 16584 ft 404 kts 215°
2026-04-26 14:54 32.42973 -80.39926 17054 ft 407 kts 215°
2026-04-26 14:54 32.40564 -80.41704 17510 ft 410 kts 215°
2026-04-26 14:54 32.38167 -80.43477 17978 ft 412 kts 215°
2026-04-26 14:55 32.35694 -80.45307 18407 ft 415 kts 216°
2026-04-26 14:55 32.33270 -80.47099 18792 ft 418 kts 216°
2026-04-26 14:55 32.30800 -80.48924 19207 ft 420 kts 216°
2026-04-26 14:55 32.28340 -80.50739 19615 ft 422 kts 216°
2026-04-26 14:56 32.25851 -80.52575 20006 ft 423 kts 216°
2026-04-26 14:56 32.23351 -80.54413 20417 ft 425 kts 216°
2026-04-26 14:56 32.20837 -80.56263 20846 ft 427 kts 216°
2026-04-26 14:56 32.18322 -80.58118 21250 ft 428 kts 216°
2026-04-26 14:57 32.15789 -80.59985 21653 ft 430 kts 216°
2026-04-26 14:57 32.13238 -80.61857 22033 ft 432 kts 216°
2026-04-26 14:57 32.10677 -80.63731 22444 ft 434 kts 217°
2026-04-26 14:57 32.08107 -80.65613 22826 ft 436 kts 217°
2026-04-26 14:58 32.05527 -80.67508 23202 ft 438 kts 217°
2026-04-26 14:58 32.02937 -80.69412 23567 ft 440 kts 217°
2026-04-26 14:58 32.01216 -80.70674 23769 ft 441 kts 217°
2026-04-26 14:58 31.98602 -80.72590 24024 ft 444 kts 217°
2026-04-26 14:59 31.95969 -80.74517 24282 ft 447 kts 217°
2026-04-26 14:59 31.93315 -80.76457 24553 ft 449 kts 216°
2026-04-26 14:59 31.90651 -80.78403 24833 ft 452 kts 217°
2026-04-26 14:59 31.88883 -80.79695 25006 ft 453 kts 217°
2026-04-26 15:00 31.85289 -80.82320 25365 ft 456 kts 216°
2026-04-26 15:00 31.81703 -80.84936 25725 ft 459 kts 216°
2026-04-26 15:00 31.79871 -80.86273 25907 ft 460 kts 216°
2026-04-26 15:00 31.77144 -80.88259 26180 ft 462 kts 216°
2026-04-26 15:01 31.74403 -80.90252 26434 ft 465 kts 216°
2026-04-26 15:01 31.71646 -80.92254 26662 ft 467 kts 217°
2026-04-26 15:01 31.68878 -80.94266 26938 ft 468 kts 217°
2026-04-26 15:01 31.66148 -80.96251 27297 ft 467 kts 217°
2026-04-26 15:02 31.63382 -80.98258 27660 ft 467 kts 217°
2026-04-26 15:02 31.60620 -81.00260 28004 ft 466 kts 217°
2026-04-26 15:02 31.57861 -81.02259 28346 ft 466 kts 217°
2026-04-26 15:02 31.55102 -81.04255 28675 ft 466 kts 218°
2026-04-26 15:03 31.52345 -81.06249 29025 ft 466 kts 218°
2026-04-26 15:03 31.49583 -81.08245 29355 ft 465 kts 218°
2026-04-26 15:03 31.46827 -81.10236 29636 ft 466 kts 218°
2026-04-26 15:03 31.44061 -81.12235 29891 ft 468 kts 218°
2026-04-26 15:04 31.41291 -81.14236 30165 ft 468 kts 218°
2026-04-26 15:04 31.38590 -81.16347 30434 ft 462 kts 225°
2026-04-26 15:04 31.36225 -81.18828 30706 ft 454 kts 233°
2026-04-26 15:04 31.34037 -81.21492 30998 ft 454 kts 233°
2026-04-26 15:05 31.31851 -81.24149 31285 ft 453 kts 233°
2026-04-26 15:05 31.30400 -81.25908 31477 ft 453 kts 233°
2026-04-26 15:05 31.27476 -81.29442 31876 ft 452 kts 233°
2026-04-26 15:05 31.25292 -81.32079 32209 ft 450 kts 233°
2026-04-26 15:06 31.23112 -81.34709 32518 ft 449 kts 233°
2026-04-26 15:06 31.20973 -81.37289 32760 ft 449 kts 232°
2026-04-26 15:06 31.18797 -81.39915 33045 ft 449 kts 232°
2026-04-26 15:06 31.16628 -81.42531 33355 ft 448 kts 232°
2026-04-26 15:07 31.12307 -81.47746 33967 ft 446 kts 232°
2026-04-26 15:07 31.10152 -81.50343 34219 ft 445 kts 232°
2026-04-26 15:07 31.07992 -81.52944 34443 ft 446 kts 232°
2026-04-26 15:08 31.05835 -81.55541 34634 ft 446 kts 233°
2026-04-26 15:08 31.03674 -81.58139 34859 ft 447 kts 233°
2026-04-26 15:08 31.01509 -81.60741 35049 ft 447 kts 233°
2026-04-26 15:08 30.99341 -81.63343 35254 ft 448 kts 233°
2026-04-26 15:09 30.97170 -81.65948 35514 ft 448 kts 233°
2026-04-26 15:09 30.94989 -81.68559 35699 ft 449 kts 233°
2026-04-26 15:09 30.92810 -81.71165 35887 ft 449 kts 233°
2026-04-26 15:09 30.90626 -81.73774 36034 ft 450 kts 233°
2026-04-26 15:10 30.86986 -81.78118 36073 ft 451 kts 233°
2026-04-26 15:10 30.81868 -81.84224 36096 ft 451 kts 233°
2026-04-26 15:11 30.76336 -81.90810 36085 ft 451 kts 233°
2026-04-26 15:11 30.62945 -82.06202 35985 ft 465 kts 221°
2026-04-26 15:12 30.60060 -82.08071 36084 ft 475 kts 210°
2026-04-26 15:12 30.56947 -82.09341 36081 ft 487 kts 200°
2026-04-26 15:12 30.51416 -82.10176 36080 ft 495 kts 189°
2026-04-26 15:12 30.44549 -82.10799 36059 ft 495 kts 190°
2026-04-26 15:13 30.30828 -82.12109 36048 ft 494 kts 190°
2026-04-26 15:13 30.17060 -82.12889 36030 ft 502 kts 177°
2026-04-26 15:14 30.03287 -82.10121 36026 ft 504 kts 174°
2026-04-26 15:14 29.89484 -82.07370 36007 ft 504 kts 174°
2026-04-26 15:15 29.75641 -82.04598 35978 ft 505 kts 173°
2026-04-26 15:15 29.61793 -82.01812 35980 ft 505 kts 173°
2026-04-26 15:16 29.47934 -81.99044 35973 ft 506 kts 173°
2026-04-26 15:16 29.34061 -81.96274 35988 ft 506 kts 173°
2026-04-26 15:17 29.27276 -81.94937 35969 ft 506 kts 173°
2026-04-26 15:17 29.19228 -81.93354 35988 ft 506 kts 173°
2026-04-26 15:18 29.12292 -81.91988 35996 ft 506 kts 173°
2026-04-26 15:18 29.05351 -81.90615 35999 ft 506 kts 173°
2026-04-26 15:19 28.98415 -81.89241 35974 ft 505 kts 173°
2026-04-26 15:19 28.94949 -81.88556 35743 ft 505 kts 173°
2026-04-26 15:19 28.91491 -81.87875 35492 ft 504 kts 173°
2026-04-26 15:20 28.88035 -81.87200 35245 ft 504 kts 174°
2026-04-26 15:20 28.84579 -81.86527 35024 ft 504 kts 173°
2026-04-26 15:20 28.81118 -81.85850 34779 ft 504 kts 173°
2026-04-26 15:20 28.77708 -81.85180 34542 ft 504 kts 173°
2026-04-26 15:21 28.74253 -81.84496 34150 ft 505 kts 173°
2026-04-26 15:21 28.70767 -81.83804 33107 ft 512 kts 173°
2026-04-26 15:21 28.67256 -81.83102 32265 ft 513 kts 173°
2026-04-26 15:21 28.63733 -81.82400 31498 ft 512 kts 173°
2026-04-26 15:22 28.60224 -81.81703 30606 ft 513 kts 173°
2026-04-26 15:22 28.56720 -81.81009 29806 ft 511 kts 173°
2026-04-26 15:22 28.53223 -81.80263 28857 ft 511 kts 171°
2026-04-26 15:22 28.49764 -81.79376 28188 ft 506 kts 169°
2026-04-26 15:23 28.46382 -81.78385 27820 ft 501 kts 167°
2026-04-26 15:23 28.43024 -81.77342 27390 ft 499 kts 167°
2026-04-26 15:23 28.39671 -81.76297 26960 ft 499 kts 167°
2026-04-26 15:23 28.36312 -81.75279 26536 ft 500 kts 168°
2026-04-26 15:24 28.32939 -81.74293 26096 ft 501 kts 168°
2026-04-26 15:24 28.29557 -81.73333 25659 ft 501 kts 168°
2026-04-26 15:24 28.26172 -81.72388 25228 ft 501 kts 168°
2026-04-26 15:24 28.22785 -81.71443 24792 ft 502 kts 168°
2026-04-26 15:25 28.19408 -81.70497 24358 ft 502 kts 168°
2026-04-26 15:25 28.17178 -81.69869 24073 ft 500 kts 168°
2026-04-26 15:25 28.12689 -81.68595 23477 ft 496 kts 168°
2026-04-26 15:25 28.09337 -81.67730 23018 ft 491 kts 173°
2026-04-26 15:26 28.05965 -81.67378 22614 ft 485 kts 182°
2026-04-26 15:26 28.02619 -81.67596 22195 ft 479 kts 191°
2026-04-26 15:26 27.99372 -81.68346 21782 ft 473 kts 198°
2026-04-26 15:26 27.96193 -81.69275 21366 ft 471 kts 197°
2026-04-26 15:27 27.93027 -81.70190 20956 ft 468 kts 197°
2026-04-26 15:27 27.89877 -81.71093 20551 ft 466 kts 197°
2026-04-26 15:27 27.86743 -81.71986 20147 ft 464 kts 197°
2026-04-26 15:27 27.83670 -81.72860 19754 ft 458 kts 197°
2026-04-26 15:28 27.80639 -81.73723 19595 ft 440 kts 197°
2026-04-26 15:28 27.77762 -81.74543 19469 ft 413 kts 197°
2026-04-26 15:28 27.75042 -81.75320 19187 ft 395 kts 198°
2026-04-26 15:28 27.72400 -81.76082 18838 ft 389 kts 197°
2026-04-26 15:29 27.69733 -81.76529 18583 ft 388 kts 186°
2026-04-26 15:29 27.67027 -81.76515 18354 ft 388 kts 181°
2026-04-26 15:29 27.61651 -81.76370 17843 ft 386 kts 179°
2026-04-26 15:30 27.56445 -81.74938 17320 ft 388 kts 158°
2026-04-26 15:30 27.53967 -81.73726 17066 ft 387 kts 158°
2026-04-26 15:30 27.51505 -81.72527 16807 ft 386 kts 158°
2026-04-26 15:31 27.49042 -81.71332 16566 ft 384 kts 158°
2026-04-26 15:31 27.44146 -81.68973 16071 ft 381 kts 159°
2026-04-26 15:31 27.41715 -81.67803 15904 ft 378 kts 159°
2026-04-26 15:32 27.37681 -81.65864 15986 ft 380 kts 158°
2026-04-26 15:32 27.34428 -81.64299 15909 ft 381 kts 159°
2026-04-26 15:32 27.31989 -81.63124 15398 ft 381 kts 159°
2026-04-26 15:33 27.29566 -81.61956 15003 ft 377 kts 159°
2026-04-26 15:33 27.27201 -81.60817 14615 ft 373 kts 159°
2026-04-26 15:33 27.24819 -81.59670 14221 ft 370 kts 159°
2026-04-26 15:33 27.22426 -81.58520 13826 ft 368 kts 159°
2026-04-26 15:34 27.20112 -81.57408 13408 ft 365 kts 158°
2026-04-26 15:34 27.17785 -81.56291 13025 ft 363 kts 159°
2026-04-26 15:34 27.15468 -81.55180 12651 ft 360 kts 159°
2026-04-26 15:34 27.13173 -81.54077 12265 ft 358 kts 159°
2026-04-26 15:35 27.10893 -81.52983 11892 ft 355 kts 159°
2026-04-26 15:35 27.08624 -81.51894 11517 ft 353 kts 159°
2026-04-26 15:35 27.06393 -81.50821 11299 ft 341 kts 159°
2026-04-26 15:35 27.04273 -81.49799 11128 ft 324 kts 159°
2026-04-26 15:36 27.02232 -81.48817 10713 ft 317 kts 159°
2026-04-26 15:36 27.00219 -81.47850 10464 ft 313 kts 159°
2026-04-26 15:36 26.98242 -81.46878 10231 ft 310 kts 158°
2026-04-26 15:36 26.96284 -81.45898 10009 ft 309 kts 158°
2026-04-26 15:37 26.94325 -81.44912 9668 ft 308 kts 158°
2026-04-26 15:37 26.92378 -81.43933 9292 ft 306 kts 158°
2026-04-26 15:37 26.90441 -81.42963 8916 ft 303 kts 158°
2026-04-26 15:37 26.88521 -81.42000 8543 ft 301 kts 158°
2026-04-26 15:38 26.86613 -81.41046 8175 ft 299 kts 159°
2026-04-26 15:38 26.84630 -81.40438 7805 ft 293 kts 178°
2026-04-26 15:38 26.82657 -81.40590 7459 ft 286 kts 197°
2026-04-26 15:38 26.80857 -81.41434 7116 ft 279 kts 215°
2026-04-26 15:39 26.79390 -81.42814 6780 ft 274 kts 226°
2026-04-26 15:39 26.78019 -81.44289 6445 ft 272 kts 225°
2026-04-26 15:39 26.76656 -81.45742 6102 ft 270 kts 225°
2026-04-26 15:39 26.75763 -81.46689 5989 ft 263 kts 225°
2026-04-26 15:40 26.74034 -81.48522 5717 ft 251 kts 225°
2026-04-26 15:40 26.72796 -81.49833 5245 ft 240 kts 225°
2026-04-26 15:40 26.71613 -81.51085 4887 ft 227 kts 224°
2026-04-26 15:40 26.70484 -81.52282 4603 ft 221 kts 224°
2026-04-26 15:41 26.69380 -81.53454 4327 ft 217 kts 224°
2026-04-26 15:41 26.68287 -81.54616 4061 ft 216 kts 224°
2026-04-26 15:41 26.67197 -81.55772 3798 ft 216 kts 224°
2026-04-26 15:41 26.66109 -81.56925 3544 ft 214 kts 224°
2026-04-26 15:42 26.65044 -81.58055 3292 ft 212 kts 225°
2026-04-26 15:42 26.64144 -81.59314 3053 ft 200 kts 234°
2026-04-26 15:42 26.63338 -81.60568 2799 ft 196 kts 233°
2026-04-26 15:42 26.62544 -81.61794 2565 ft 195 kts 233°
2026-04-26 15:43 26.61749 -81.63015 2331 ft 194 kts 233°
2026-04-26 15:43 26.60991 -81.64182 2115 ft 178 kts 233°
2026-04-26 15:43 26.59581 -81.66347 1693 ft 165 kts 233°
2026-04-26 15:44 26.58915 -81.67368 1489 ft 160 kts 233°
2026-04-26 15:44 26.57632 -81.69367 1082 ft 158 kts 233°
2026-04-26 15:44 26.56993 -81.70373 888 ft 160 kts 233°
2026-04-26 15:45 26.55685 -81.72370 415 ft 158 kts 233°
2026-04-26 15:45 26.55040 -81.73372 241 ft 159 kts 230°
2026-04-26 15:46 26.53792 -81.75245 38 ft 119 kts 234°
2026-04-26 15:46 26.53434 -81.75793 39 ft 43 kts 234°
2026-04-26 15:46 26.53306 -81.75990 39 ft 30 kts 233°
2026-04-26 15:46 26.53266 -81.76048 36 ft 25 kts 232°
2026-04-26 15:47 26.53116 -81.76085 38 ft 13 kts 143°
2026-04-26 15:47 26.53018 -81.76008 40 ft 6 kts 145°
2026-04-26 15:47 26.52984 -81.75981 40 ft 6 kts 144°
2026-04-26 15:48 26.52929 -81.75936 40 ft 11 kts 143°
2026-04-26 15:48 26.52902 -81.75881 41 ft 7 kts 89°
2026-04-26 15:48 26.52912 -81.75854 41 ft 4 kts 52°
2026-04-26 15:48 26.52916 -81.75846 40 ft 0 kts 57°